Weather Roundup
Issued by NWS Chicago, IL

Home | Current Version | Previous Version | Text Only | Print | Product List | Glossary On
Versions: 1 2 3 4 5 6 7 8 9 10 11 12 13 14 15 16 17 18 19 20 21 22 23 24 25 26 27 28 29 30 31 32 33 34 35 36 37 38 39 40 41 42 43 44 45 46 47 48 49 50
000
NZUS59 KLOT 261208
HRRLOT

CHICAGO AREA WEATHER ROUNDUP
NATIONAL WEATHER SERVICE CHICAGO/ROMEOVILLE IL
700 AM CDT WED APR 26 2017

NOTE: "FAIR" INDICATES FEW OR NO CLOUDS BELOW 12,000 FEET WITH NO
SIGNIFICANT WEATHER AND/OR OBSTRUCTIONS TO VISIBILITY.

* THESE STATIONS ARE NOT UNDER NWS QUALITY CONTROL. THEY ALSO MAY NOT
  REPORT WEATHER SUCH AS PRECIPITATION OR FOG.

ILZ005-006-012>014-019>023-261300-
NORTHEAST ILLINOIS

CITY           SKY/WX    TMP DP  RH WIND       PRES   REMARKS
OHARE          PTSUNNY   65  55  70 S15G22    29.47R
6HR MIN TEMP:  64; 6HR MAX TEMP:  68;

MIDWAY         PTSUNNY   66  56  70 S15G21    29.49R
6HR MIN TEMP:  66; 6HR MAX TEMP:  70;

AURORA         MOSUNNY   65  56  72 SE15      29.47R
6HR MIN TEMP:  63; 6HR MAX TEMP:  68;

LANSING*       CLOUDY    64  57  80 S14       29.51R
JOLIET*        MOSUNNY   65  57  75 S13       29.50R
WAUKEGAN       CLOUDY    57  53  86 SE7       29.46S
6HR MIN TEMP:  55; 6HR MAX TEMP:  58;

DUPAGE AIRPORT SUNNY     64  57  78 S13       29.47R
6HR MIN TEMP:  63; 6HR MAX TEMP:  68;

WHEELING       SUNNY     64  57  78 S15G23    29.48S
6HR MIN TEMP:  63; 6HR MAX TEMP:  68;

KANKAKEE*      CLOUDY    65  55  70 S15G23    29.53R
MORRIS*        CLOUDY    64  55  72 S16G23    29.47R
LEWIS AIRPORT* MOSUNNY   63  58  85 S14       29.50R
NORTHERLY ISL    N/A     65  54  67 S12         N/A
$$

WIZ051-052-058>065-066-070>072-261300-
SOUTHEAST WISCONSIN

CITY           SKY/WX    TMP DP  RH WIND       PRES   REMARKS
MILWAUKEE      PTSUNNY   59  53  80 SE10      29.46S
6HR MIN TEMP:  57; 6HR MAX TEMP:  61; 6HR PCP: TRACE;

KENOSHA*       CLOUDY    60  53  77 SE7       29.46S
RACINE*        MOSUNNY   55  49  80 S12       29.47F
WAUKESHA       SUNNY     57  52  82 SE12      29.44F
WEST BEND      MOSUNNY   59  54  82 SE7       29.44S
$$

INZ001>003-010>013-019-020-261300-
NORTHWEST INDIANA

CITY           SKY/WX    TMP DP  RH WIND       PRES   REMARKS
GARY*          PTSUNNY   66  54  63 SE15      29.51R
MICHIGAN CITY* NOT AVBL
RENSSELAER*    NOT AVBL
VALPARAISO     CLOUDY    64  56  75 S10G18    29.54R
$$

LMZ740>746-261300-
SOUTHERN LAKE MICHIGAN

STATION/POSITION TIME  SKY/WX   TEMP WIND        PRES    VSBY
                                AIR  DIR/SP/G
                 (UTC)          (F)  (DEG/KT/KT) (MB)    (MI)
HARRISON CRIB    1130            60  170/ 12/ 14   N/A
BURNHAM HARBOR   1200            65  160/ 16       N/A
CALUMET HARBOR   1142            65  160/ 13/ 17  998.5R
BURNS HARBOR     1140            65  160/  9/ 16 1000.0R
MICHIGAN CITY    1140            64  150/ 11/ 15   N/A
$$

ABBREVIATIONS USED IN REMARKS
   TC - TEMPERATURE IN CELSIUS
  WCI - WIND CHILL INDEX
   HX - HEAT INDEX
  VSB - VISIBILITY
$$



USA.gov is the U.S. government's official web portal to all federal, state and local government web resources and services.